HAL1226 PHOG-PHTO

Flight info

Callsign HAL1226
Flight time 0h 27m
Altitude 15000
Route PHOG ONOHI2 BARBY PARIS V15 ITO PHTO
Aircraft B712/M-SDE2E3FGHIRW/LB1

Departure

Time 2026-04-27 19:20
Airport Kahului International Airport (PHOG)

Arrival

Time 2026-04-27 19:48
Airport Hilo International Airport (PHTO)
Time Latitude Longitude Altitude Speed Heading
2026-04-27 19:06 20.89671 -156.43378 32 ft 0 kts 305°
2026-04-27 19:11 20.89664 -156.43368 32 ft 2 kts 305°
2026-04-27 19:11 20.89655 -156.43354 32 ft 2 kts 305°
2026-04-27 19:11 20.89645 -156.43341 32 ft 2 kts 338°
2026-04-27 19:12 20.89629 -156.43341 32 ft 2 kts 31°
2026-04-27 19:12 20.89627 -156.43342 32 ft 0 kts 36°
2026-04-27 19:14 20.89628 -156.43340 32 ft 1 kts 49°
2026-04-27 19:15 20.89625 -156.43331 32 ft 2 kts 137°
2026-04-27 19:15 20.89594 -156.43323 32 ft 7 kts 180°
2026-04-27 19:15 20.89535 -156.43335 32 ft 11 kts 204°
2026-04-27 19:15 20.89464 -156.43387 32 ft 14 kts 213°
2026-04-27 19:16 20.89373 -156.43451 33 ft 17 kts 215°
2026-04-27 19:16 20.89304 -156.43503 33 ft 19 kts 214°
2026-04-27 19:16 20.89142 -156.43626 33 ft 23 kts 216°
2026-04-27 19:16 20.89023 -156.43706 33 ft 18 kts 192°
2026-04-27 19:17 20.88988 -156.43697 33 ft 0 kts 135°
2026-04-27 19:18 20.88986 -156.43695 33 ft 2 kts 135°
2026-04-27 19:18 20.88967 -156.43672 33 ft 6 kts 125°
2026-04-27 19:18 20.88935 -156.43620 33 ft 6 kts 117°
2026-04-27 19:19 20.88937 -156.43611 33 ft 1 kts 44°
2026-04-27 19:19 20.88940 -156.43609 33 ft 1 kts 34°
2026-04-27 19:19 20.89044 -156.43533 33 ft 49 kts 34°
2026-04-27 19:19 20.89515 -156.43188 34 ft 115 kts 34°
2026-04-27 19:20 20.90344 -156.42574 60 ft 172 kts 34°
2026-04-27 19:20 20.91338 -156.41806 641 ft 180 kts 40°
2026-04-27 19:20 20.92125 -156.40743 1331 ft 187 kts 64°
2026-04-27 19:20 20.92412 -156.39397 2118 ft 185 kts 86°
2026-04-27 19:21 20.92354 -156.38009 2724 ft 201 kts 99°
2026-04-27 19:21 20.91986 -156.36424 2915 ft 229 kts 111°
2026-04-27 19:21 20.91255 -156.34957 3998 ft 219 kts 120°
2026-04-27 19:21 20.90486 -156.33506 4709 ft 234 kts 118°
2026-04-27 19:22 20.89712 -156.31891 5202 ft 253 kts 114°
2026-04-27 19:22 20.88964 -156.30131 5906 ft 265 kts 108°
2026-04-27 19:22 20.88677 -156.28191 6852 ft 266 kts 97°
2026-04-27 19:22 20.88463 -156.26219 7714 ft 271 kts 97°
2026-04-27 19:23 20.88233 -156.24203 8529 ft 274 kts 97°
2026-04-27 19:23 20.88016 -156.22164 9374 ft 280 kts 96°
2026-04-27 19:23 20.87826 -156.20079 10197 ft 283 kts 95°
2026-04-27 19:23 20.87649 -156.17952 10903 ft 289 kts 95°
2026-04-27 19:24 20.87481 -156.15778 11534 ft 298 kts 94°
2026-04-27 19:24 20.87320 -156.13546 12204 ft 304 kts 94°
2026-04-27 19:24 20.87162 -156.11260 12875 ft 310 kts 92°
2026-04-27 19:24 20.87005 -156.08962 13501 ft 318 kts 92°
2026-04-27 19:25 20.86847 -156.06586 14157 ft 322 kts 93°
2026-04-27 19:25 20.86678 -156.04151 14588 ft 337 kts 96°
2026-04-27 19:25 20.85902 -156.01715 14792 ft 360 kts 123°
2026-04-27 19:25 20.84229 -155.99600 14906 ft 389 kts 134°
2026-04-27 19:26 20.82259 -155.97524 14964 ft 401 kts 136°
2026-04-27 19:26 20.80240 -155.95437 14980 ft 405 kts 136°
2026-04-27 19:26 20.78208 -155.93320 14985 ft 411 kts 135°
2026-04-27 19:26 20.76159 -155.91149 14992 ft 417 kts 135°
2026-04-27 19:27 20.74105 -155.88930 14995 ft 424 kts 134°
2026-04-27 19:27 20.72024 -155.86638 14988 ft 431 kts 133°
2026-04-27 19:27 20.70061 -155.84287 14983 ft 423 kts 130°
2026-04-27 19:27 20.68204 -155.81900 14524 ft 416 kts 129°
2026-04-27 19:28 20.66386 -155.79494 13841 ft 416 kts 128°
2026-04-27 19:28 20.64577 -155.77075 13070 ft 416 kts 128°
2026-04-27 19:28 20.62771 -155.74659 12327 ft 416 kts 128°
2026-04-27 19:28 20.60965 -155.72257 11598 ft 415 kts 128°
2026-04-27 19:29 20.59153 -155.69869 10893 ft 413 kts 128°
2026-04-27 19:29 20.57339 -155.67499 10199 ft 411 kts 128°
2026-04-27 19:29 20.55526 -155.65143 9442 ft 409 kts 129°
2026-04-27 19:29 20.53716 -155.62809 8702 ft 407 kts 129°
2026-04-27 19:30 20.51922 -155.60523 8281 ft 395 kts 129°
2026-04-27 19:30 20.50469 -155.58129 8059 ft 377 kts 110°
2026-04-27 19:30 20.49833 -155.55490 7992 ft 357 kts 109°
2026-04-27 19:30 20.48622 -155.53247 7554 ft 348 kts 134°
2026-04-27 19:31 20.46806 -155.51568 7075 ft 344 kts 140°
2026-04-27 19:31 20.44921 -155.50015 6600 ft 340 kts 141°
2026-04-27 19:31 20.43067 -155.48496 6256 ft 331 kts 141°
2026-04-27 19:31 20.41311 -155.47022 6109 ft 317 kts 140°
2026-04-27 19:32 20.39626 -155.45556 6041 ft 299 kts 139°
2026-04-27 19:32 20.38102 -155.44184 6004 ft 282 kts 138°
2026-04-27 19:32 20.36670 -155.42855 5995 ft 263 kts 137°
2026-04-27 19:32 20.35363 -155.41609 5985 ft 242 kts 136°
2026-04-27 19:33 20.34179 -155.40447 5973 ft 219 kts 135°
2026-04-27 19:33 20.33470 -155.39738 5967 ft 201 kts 135°
2026-04-27 19:33 20.32153 -155.38396 5571 ft 213 kts 134°
2026-04-27 19:33 20.31098 -155.37290 5739 ft 212 kts 134°
2026-04-27 19:34 20.30043 -155.36172 5875 ft 217 kts 133°
2026-04-27 19:34 20.28958 -155.35014 5937 ft 225 kts 134°
2026-04-27 19:34 20.27828 -155.33799 5966 ft 236 kts 134°
2026-04-27 19:34 20.26640 -155.32525 5974 ft 249 kts 133°
2026-04-27 19:35 20.25387 -155.31180 5971 ft 261 kts 133°
2026-04-27 19:35 20.24076 -155.29769 5969 ft 275 kts 133°
2026-04-27 19:35 20.22718 -155.28302 5976 ft 288 kts 134°
2026-04-27 19:35 20.21273 -155.26748 5975 ft 302 kts 134°
2026-04-27 19:36 20.19757 -155.25121 5985 ft 316 kts 134°
2026-04-27 19:36 20.18178 -155.23428 5984 ft 329 kts 134°
2026-04-27 19:36 20.16526 -155.21657 6000 ft 342 kts 134°
2026-04-27 19:36 20.14821 -155.19821 6041 ft 355 kts 134°
2026-04-27 19:37 20.13104 -155.17965 5938 ft 346 kts 133°
2026-04-27 19:37 20.11435 -155.16147 5579 ft 339 kts 133°
2026-04-27 19:37 20.09806 -155.14367 5218 ft 331 kts 133°
2026-04-27 19:37 20.08221 -155.12634 4852 ft 323 kts 133°
2026-04-27 19:38 20.06687 -155.10958 4482 ft 317 kts 133°
2026-04-27 19:38 20.05145 -155.09271 4203 ft 308 kts 133°
2026-04-27 19:38 20.03703 -155.07698 4093 ft 294 kts 133°
2026-04-27 19:38 20.02322 -155.06167 4040 ft 281 kts 131°
2026-04-27 19:39 20.00989 -155.04601 4018 ft 294 kts 130°
2026-04-27 19:39 19.99589 -155.02911 4000 ft 314 kts 130°
2026-04-27 19:39 19.98110 -155.01114 3994 ft 332 kts 130°
2026-04-27 19:39 19.96551 -154.99219 3998 ft 349 kts 130°
2026-04-27 19:40 19.94935 -154.97259 3990 ft 354 kts 130°
2026-04-27 19:40 19.93307 -154.95283 3983 ft 354 kts 130°
2026-04-27 19:40 19.91720 -154.93374 3974 ft 334 kts 130°
2026-04-27 19:40 19.90232 -154.91586 3971 ft 314 kts 130°
2026-04-27 19:41 19.88813 -154.89913 3968 ft 294 kts 132°
2026-04-27 19:41 19.87423 -154.88421 3956 ft 275 kts 134°
2026-04-27 19:41 19.86070 -154.87047 3765 ft 262 kts 135°
2026-04-27 19:41 19.84762 -154.85756 3604 ft 248 kts 135°
2026-04-27 19:42 19.83544 -154.84557 3529 ft 229 kts 135°
2026-04-27 19:42 19.82430 -154.83453 3508 ft 206 kts 134°
2026-04-27 19:42 19.81451 -154.82480 3391 ft 184 kts 134°
2026-04-27 19:42 19.80503 -154.81528 2663 ft 195 kts 133°
2026-04-27 19:43 19.79470 -154.80464 2048 ft 225 kts 133°
2026-04-27 19:43 19.78303 -154.79253 2408 ft 247 kts 133°
2026-04-27 19:43 19.76877 -154.78247 2564 ft 246 kts 163°
2026-04-27 19:43 19.75225 -154.78363 2665 ft 241 kts 202°
2026-04-27 19:44 19.73996 -154.79554 2536 ft 244 kts 243°
2026-04-27 19:44 19.73454 -154.81251 2433 ft 244 kts 253°
2026-04-27 19:44 19.73064 -154.83001 2294 ft 243 kts 261°
2026-04-27 19:44 19.72854 -154.84785 2150 ft 243 kts 264°
2026-04-27 19:45 19.72705 -154.86583 1995 ft 245 kts 264°
2026-04-27 19:45 19.72547 -154.88395 1891 ft 250 kts 264°
2026-04-27 19:45 19.72393 -154.90247 1846 ft 253 kts 268°
2026-04-27 19:45 19.72251 -154.92148 1886 ft 272 kts 263°
2026-04-27 19:46 19.72036 -154.94157 1765 ft 273 kts 264°
2026-04-27 19:46 19.71848 -154.96170 1648 ft 275 kts 265°
2026-04-27 19:46 19.71834 -154.98185 1366 ft 272 kts 275°
2026-04-27 19:46 19.72099 -155.00132 823 ft 245 kts 278°
2026-04-27 19:47 19.72130 -155.01608 457 ft 164 kts 269°
2026-04-27 19:47 19.72137 -155.02690 133 ft 133 kts 272°
2026-04-27 19:47 19.72145 -155.03539 46 ft 92 kts 271°
2026-04-27 19:47 19.72147 -155.04072 43 ft 60 kts 270°
2026-04-27 19:48 19.72148 -155.04426 39 ft 44 kts 270°
2026-04-27 19:48 19.72148 -155.04731 36 ft 39 kts 270°
2026-04-27 19:48 19.72108 -155.04913 38 ft 22 kts 197°
2026-04-27 19:48 19.72048 -155.04917 38 ft 0 kts 178°
2026-04-27 19:49 19.72041 -155.04915 38 ft 2 kts 159°
2026-04-27 19:50 19.72020 -155.04894 38 ft 6 kts 115°
2026-04-27 19:50 19.72015 -155.04837 38 ft 10 kts 91°
2026-04-27 19:50 19.72017 -155.04747 38 ft 14 kts 89°
2026-04-27 19:50 19.72016 -155.04632 39 ft 17 kts 90°
2026-04-27 19:51 19.72016 -155.04491 40 ft 20 kts 90°
2026-04-27 19:51 19.72016 -155.04330 40 ft 23 kts 90°
2026-04-27 19:51 19.72016 -155.04154 41 ft 23 kts 90°
2026-04-27 19:51 19.71934 -155.04060 41 ft 20 kts 180°
2026-04-27 19:52 19.71792 -155.04058 41 ft 21 kts 180°
2026-04-27 19:52 19.71690 -155.04059 41 ft 22 kts 181°
2026-04-27 19:52 19.71648 -155.04129 41 ft 10 kts 276°
2026-04-27 19:52 19.71644 -155.04177 40 ft 3 kts 219°
2026-04-27 19:53 19.71580 -155.04177 40 ft 4 kts 179°
2026-04-27 19:53 19.71570 -155.04177 40 ft 2 kts 178°
2026-04-27 19:53 19.71564 -155.04177 40 ft 0 kts 178°